Weather in Peebles

United Kingdom     55°39′10″N   3°11′21″W
temp.,
°C
wind,
m/s
gust,
m/s
humid.,
%
clouds,
%
prec.,
mm/h
press.,
hPa
HPBL,
m
23 april, fri
fri2301:00+4ssw0087100 0.0 102810
04:00+4ssw1189100 0.0 102810
07:00+5ssw1185100 0.0 102910
10:00+11nw11567 0.0 1029593
13:00+15ne0141100 0.0 10281441
16:00+14nne2246100 0.0 10271271
19:00+10ne2374100 0.0 1028227
22:00+7ene1190100 0.0 102916
24 april, sat
sat2401:00+5ne2290100 0.0 103043
04:00+4ne2291100 0.0 103043
07:00+4ene128756 0.0 103089
10:00+9ene34665 0.0 1030676
13:00+12e336081 0.0 10301290
16:00+10e336588 0.0 1030712
19:00+9ese237121 0.0 1031613
22:00+4ese219482 0.0 103217
25 april, sun
sun2501:00+3se119457 0.0 103210
04:00+3se1194100 0.0 103210
07:00+5wsw0086100 0.0 103186
10:00+8n117372 0.0 1031430
13:00+13n22589 0.0 10291078
16:00+13nne225222 0.1 10271434
19:00+12ne116599 0.1 1026130
22:00+7ssw1185100 0.1 102611
26 april, mon
mon2601:00+7sw3590100 0.1 1025112
04:00+6sw3985100 0.0 1022292
07:00+7wsw31083100 0.0 1020553
10:00+8wsw61074100 0.2 10181072
13:00+8wsw5985100 0.5 1015888
16:00+8nnw4585100 1.9 10131004
19:00+5n51097100 3.9 1014745
22:00+4ne71197100 0.4 1016964
27 april, tue
tue2701:00+4ne61197100 0.8 1017877
04:00+3ne61197100 0.5 1018819
07:00+3ne7119695 0.9 1019848
10:00+3nne6980100 0.1 10201124
13:00+4ne597199 0.2 10191202
16:00+5ne577495 0.1 10181049
19:00+4ne478399 0.3 1018759
22:00+1nne129016 0.2 101839